Flag for U.S.A. Weather past 2 weeks in Atlanta, Georgia, U.S.A.

Now
72 °F

Light rain. Mostly cloudy.


Feels Like: 71 °F
Forecast: 72 / 84 °F
Wind: 10 mph from West

Location: Fulton County Airport-Brown Field

Current Time: Jul 3, 2015 at 12:49:20 PM

Latest Report: Jul 3, 2015 at 11:53 AM


Visibility: 10 mi

Pressure: 30.03 "Hg

Humidity: 84%

Dew point: 67 °F

Location of AtlantaLocation

Historic Weather in Atlanta — Graph

°F

Atlanta temperature yesterday

Maximum temperature yesterday: 87 °F (at 4:53 PM)
Minimum temperature yesterday: 68 °F (at 4:53 AM)
Average temperature yesterday: 77 °F

Past Weeks' High & Low Weather Summary

 TemperatureHumidityPressure
High95 °F (Jun 23, 3:53 PM)93% (Jun 19, 1:53 AM)30.12 "Hg (Jun 19, 1:53 AM)
Low61 °F (Jun 29, 5:53 AM)37% (Jun 23, 4:53 PM)29.82 "Hg (Jun 27, 4:53 PM)
Average80 °F69%30.00 "Hg
* Reported Jun 18 10:53 AM — Jul 3 10:53 AM, Atlanta, Weather by CustomWeather, © 2015

Note: Actual official high and low records may vary slightly from our data, if they occured in-between our weather recording intervals... More about our weather records

Advertising

Atlanta weather history for previous 24 hours

 ConditionsComfort  
Time TempWeatherWind HumidityBarometerVisibility
10:53 AM
Fri, Jul 3
71 °FLight rain. Cloudy.8 mph90%30.01 "Hg10 mi
9:53 AM71 °FThundershowers. More clouds than sun.6 mph90%29.99 "Hg10 mi
9:03 AM77 °FThunderstorms. Broken clouds.9 mph85%29.98 "Hg9 mi
8:53 AM77 °FThundershowers. Broken clouds.8 mph85%29.95 "Hg9 mi
7:53 AM76 °FPassing clouds.9 mph85%29.93 "Hg9 mi
6:53 AM75 °FPassing clouds.9 mph88%29.93 "Hg8 mi
5:53 AM74 °FPassing clouds.9 mph91%29.91 "Hg10 mi
4:53 AM74 °FPassing clouds.7 mph88%29.91 "Hg10 mi
3:53 AM75 °FPassing clouds.8 mph85%29.92 "Hg10 mi
2:53 AM75 °FPassing clouds.7 mph85%29.92 "Hg10 mi
1:53 AM76 °FPartly cloudy.6 mph80%29.94 "Hg10 mi
12:53 AM77 °FPassing clouds.No wind77%29.95 "Hg10 mi
11:53 PM
Thu, Jul 2
78 °FClear.6 mph71%29.95 "Hg10 mi
10:53 PM79 °FPassing clouds.6 mph69%29.94 "Hg10 mi
9:53 PM80 °FClear.7 mph67%29.94 "Hg10 mi
8:53 PM81 °FSunny.8 mph65%29.93 "Hg10 mi
7:53 PM83 °FSunny.9 mph59%29.94 "Hg10 mi
6:53 PM85 °FSunny.9 mph53%29.93 "Hg10 mi
5:53 PM86 °FScattered clouds.9 mph53%29.93 "Hg10 mi
4:53 PM87 °FScattered clouds.16 mph50%29.93 "Hg10 mi
3:53 PM85 °FPassing clouds.13 mph55%29.94 "Hg10 mi
2:53 PM84 °FBroken clouds.14 mph61%29.95 "Hg10 mi
1:53 PM85 °FScattered clouds.10 mph61%29.97 "Hg10 mi
12:53 PM84 °FPassing clouds.13 mph61%29.99 "Hg10 mi
Weather by CustomWeather, © 2015

See weather overviewHow to use our weather pages